STARLINK-1376, 45570

Orbit data source: Space-Track

STARLINK-1376, 45570 is a payload satellite owned by SpaceX/Seattle (US) in LEO that was launched on Wed, 22 Apr 2020 UTC via an FALCON 9 launch vehicle from the Air Force Eastern Test Range (AFETR). Payload-class satellites include a variety of spacecraft equipped with specific instruments for various scientific and technological missions. These include communications satellites like Starlink; space stations such as the ISS; scientific satellites like the Hubble; Earth observation satellites from companies like Planet Labs, Umbra, and HawkEye 360; GPS; miniature CubeSats for education and research; and military/defense satellites.

Loading next visibility...
Identifier
45570, 2020-025AR
Orbit
LEO
Country
Flag of USUS
Related business
Manufacturer
SpaceX/Seattle
Mission
Partially operational Commercial Communications
Bus & Motor
STARLINK, Unknown motor
Mass
260 kg wet, ~248 kg dry
Launch date (UTC)
2020-04-22 (6 years ago)
Launch vehicle
FALCON 9
Launch site
Air Force Eastern Test Range (AFETR)
Object type
Payload
Rocket body
Debris
Shape & HBR
Box + 1 Pan, 10.1 m
Radar Cross Section
13.562 m², Large (>1 m²)

Expand to show TLE details & history
Last TLE update: 5 hours ago

TLE from 5 hours ago
0 STARLINK-1376
1 45570U 20025AR  26255.27755285  .00021131  00000-0  42219-3 0  9990
2 45570  53.1519 279.9126 0004470  34.3079 325.8217 15.46786606354227
Epoch: 2026-09-12T06:39Z
TLE epoch observation values (Epoch: 2026-09-12T06:39:40.566Z)
Latitude
Longitude
-171.29528°
Altitude
424.523 km
Speed
7.659 km/s
True Right ascension
18h 39m 39s
True Declination
0° 00' 00"
Sunlit
Object was in daylight at epoch
Visualization orbit readout
Latitude
Unknown
Longitude
Unknown
Altitude
Unknown
Speed
Unknown
Apparent Right ascension
Unknown
Apparent Declination
Unknown
Sunlit
N/A
Visualization observer readout
Local Sidereal Time
04:31:11
Azimuth
Unknown
Elevation
Unknown
Doppler factor
Unknown
Orbital elements
Apogee altitude
429.435 km
Perigee altitude
423.351 km
Semi-major axis
6,804.53 km
Eccentricity
0.00045
Inclination
53.1519°
RAAN
279.9126°
Arg. of periapsis
34.3079°
True anomaly
325.79291°
Mean anomaly
325.8217°
Eccentric anomaly
325.80731°
Mean motion
3.86675 °/min
Orbital period
93.1 mins
BSTAR
0.00042219
Loading maneuver chart data...
Computing Atmospheric mass density...

Documentation

Showing up to 5 results
|